Tracking 22100 objects as of 19-Jan-2021
HD Live streaming from Space Station
objects crossing your sky now

CLUSTER II-FM6

Track CLUSTER II-FM6 now!
CLUSTER II-FM6 is classified as:


NORAD ID: 26410
Int'l Code: 2000-041A
Perigee: 32,356.5 km
Apogee: 100,473.5 km
Inclination: 132.4 °
Period: 3,257.1 minutes
Semi major axis: 72785 km
RCS: 1.9953 m2 (large)
Launch date: July 16, 2000
Source: European Space Agency (ESA)
Launch site: TYURATAM MISSILE AND SPACE COMPLEX (TTMTR)
aabbcc
Your satellite tracking list
Your tracking list is empty




NASA's NSSDC Master Catalog

Two Line Element Set (TLE):
1 26410U 00041A   21020.46355187  .00000227  00000-0  00000+0 0  9992
2 26410 132.4072 343.3231 4679269 188.7116 359.1131  0.44211124 23308
Source of the keplerian elements: AFSPC